[[{"header":{"parameterUnit":"m.s-1","parameterCategory":1,"la1":30.2991,"la2":30.254,"lo1":-89.0895,"lo2":-89.0444,"dy":0.0017,"dx":0.0017,"nx":28,"ny":28,"refTime":"2024-12-01T09:00:00:Z","depth":0,"parameterNumber":2,"parameterNumberName":"U-component_of_WINDS"},"data":[0,0,0,0,0,0,0,0,0,0,0,0,0,0,0,0,0,0,0,0,0,0,0,0,0,0,0,0,0,0,0,0,0,0,0,0,0,0,0,0,0,0,0,0,0,0,0,0,0,0,0,0,0,0,0,0,0,0,-2.5784,-2.5785,0,-2.5849,-2.5849,-2.585,-2.5744,-2.574,-2.5736,-2.5733,-2.5801,-2.5807,-2.5812,0,0,0,0,0,0,0,0,0,0,0,0,0,-2.5569,-2.5574,-2.5784,-2.5785,-2.5785,-2.5849,-2.5849,-2.585,-2.5744,-2.574,-2.5736,-2.5731,-2.58,-2.5806,-2.5812,0,0,0,0,0,0,0,0,0,0,0,0,0,-2.5651,-2.5575,-2.5784,-2.574,-2.5737,-2.5848,-2.585,-2.5851,-2.5745,-2.574,-2.5734,-2.5729,-2.5798,-2.5805,-2.5813,-2.5971,0,0,-2.5837,-2.584,0,0,0,0,0,0,0,0,-2.5647,-2.5659,-2.5746,-2.5743,-2.574,-2.5782,-2.5799,-2.5891,-2.5747,-2.5742,-2.5733,-2.5727,-2.58,-2.5807,-2.5831,-2.5974,-2.5977,-2.5838,-2.5842,-2.5846,-2.5848,0,0,0,0,0,0,0,-2.5641,-2.5656,-2.5809,-2.5747,-2.5744,-2.5718,-2.5723,-2.5816,-2.5801,-2.5742,-2.5735,-2.5744,-2.5797,-2.5824,-2.5832,-2.5978,-2.5837,-2.5844,-2.5849,-2.5852,-2.6252,-2.6258,0,0,0,0,0,0,-2.564,-2.5652,-2.5807,-2.5811,-2.5679,-2.5726,-2.5732,-2.5774,-2.58,-2.5798,-2.5748,-2.5738,-2.5813,-2.5823,-2.5834,-2.602,-2.5846,-2.5853,-2.5858,-2.6247,-2.6254,-2.626,0,0,0,0,0,0,-2.5636,-2.5655,-2.5805,-2.573,-2.5747,-2.5735,-2.5784,-2.5779,-2.5805,-2.5804,-2.5801,-2.5779,-2.5809,-2.5823,-2.5937,-2.6021,-2.5857,-2.5864,-2.624,-2.6249,-2.6257,-2.6395,0,0,0,0,0,0,-2.5631,-2.5655,-2.5714,-2.5732,-2.5751,-2.5907,-2.5789,-2.5784,-2.5819,-2.5807,-2.5832,-2.5831,-2.5806,-2.5926,-2.5945,-2.6029,-2.587,-2.6232,-2.6244,-2.6254,-2.6383,-2.6407,-2.6428,0,0,0,0,0,-2.5623,-2.5751,-2.5718,-2.5737,-2.5826,-2.5912,-2.5923,-2.5892,-2.5826,-2.5886,-2.5885,-2.583,-2.6009,-2.5939,-2.5959,-2.6047,-2.6227,-2.624,-2.6253,-2.6372,-2.6402,-2.6428,0,0,0,0,0,0,-2.5745,-2.5753,-2.5716,-2.5853,-2.5883,-2.5894,-2.5969,-2.5925,-2.5975,-2.5961,-2.5921,-2.5927,-2.605,-2.6059,-2.5981,-2.62,-2.6107,-2.6125,-2.619,-2.6219,-2.6241,-2.6237,-2.5876,0,0,0,0,0,-2.5788,-2.5857,-2.586,-2.5981,-2.5997,-2.5981,-2.6018,-2.5991,-2.602,-2.6033,-2.604,-2.6071,-2.6134,-2.6176,-2.6234,-2.6383,-2.6387,-2.6453,-2.6475,-2.6494,-2.6511,-2.659,-2.6619,-2.6304,-2.6304,-2.6304,0,0,-2.5877,-2.589,-2.5936,-2.6006,-2.6025,-2.6099,-2.5993,-2.6075,-2.6129,-2.6045,-2.6153,-2.616,-2.6192,-2.6324,-2.6382,-2.6335,-2.6598,-2.6511,-2.6526,-2.6533,-2.6607,-2.6636,-2.6663,-2.6313,-2.6311,-2.631,0,0,-2.6077,-2.6094,-2.6196,-2.6218,-2.6248,-2.6236,-2.6261,-2.6279,-2.628,-2.6387,-2.6326,-2.6389,-2.6499,-2.6524,-2.6551,-2.6759,-2.671,-2.6779,-2.6899,-2.6976,-2.7001,-2.7023,-2.7098,-2.7125,-2.6795,-2.6796,-2.6796,0,-2.6185,-2.6292,-2.6254,-2.6341,-2.6373,-2.6299,-2.6403,-2.6426,-2.6475,-2.6499,-2.6445,-2.658,-2.6596,-2.6733,-2.6784,-2.6808,-2.6835,-2.6777,-2.7001,-2.7022,-2.7042,-2.7113,-2.7141,-2.6804,-2.6803,-2.6802,-2.6801,0,-2.6423,-2.6499,-2.6577,-2.6625,-2.6666,-2.6761,-2.6737,-2.6783,-2.6752,-2.6746,-2.6856,-2.6873,-2.6933,-2.6963,-2.6934,-2.7095,-2.7065,-2.7007,-2.6912,-2.7081,-2.7147,-2.7174,-2.6816,-2.6813,-2.681,-2.6808,0,0,-2.6704,-2.6728,-2.6758,-2.6779,-2.6807,-2.6865,-2.6955,-2.7013,-2.7053,-2.7089,-2.7164,-2.7258,-2.7203,-2.7234,-2.7207,-2.7275,-2.7439,-2.7208,-2.7208,-2.7251,-2.7618,-2.7663,-2.7695,-2.7406,-2.7411,-2.7415,-2.7616,0,-2.6904,-2.706,-2.7028,-2.7182,-2.7251,-2.7181,-2.726,-2.7286,-2.7282,-2.734,-2.7335,-2.7402,-2.7325,-2.7343,-2.7407,-2.7406,-2.7512,-2.739,-2.7476,-2.748,-2.7472,-2.7729,-2.7777,-2.7967,-2.7641,-2.7646,-2.7649,0,-2.7159,-2.7203,-2.7363,-2.7379,-2.7407,-2.7479,-2.7528,-2.7585,-2.7612,-2.7604,-2.7638,-2.7598,-2.7687,-2.759,-2.7714,-2.7632,-2.7664,-2.7669,-2.7675,-2.7683,-2.7576,-2.7746,-2.8026,-2.8055,-2.7689,-2.7686,-2.7683,0,-2.7349,-2.7448,-2.7557,-2.7576,-2.7598,-2.765,-2.7661,-2.7683,-2.7719,-2.7762,-2.7785,-2.7839,-2.7869,-2.7911,-2.7886,-2.7817,-2.8014,-2.7915,-2.8011,-2.8012,-2.8057,-2.8055,-2.8348,-2.8076,-2.8076,-2.8075,-2.8075,0,-2.7576,-2.7678,-2.7642,-2.771,-2.782,-2.7782,-2.7893,-2.7896,-2.7915,-2.7982,-2.7924,-2.7988,-2.795,-2.8011,-2.7991,-2.8097,-2.811,-2.8107,-2.8101,-2.8113,-2.8114,-2.8135,-2.8122,-2.8083,-2.8081,-2.808,-2.8078,0,-2.7808,-2.7789,-2.7903,-2.7913,-2.7917,-2.7999,-2.8007,-2.807,-2.806,-2.8145,-2.8163,-2.8149,-2.8217,-2.8195,-2.8269,-2.8256,-2.839,-2.8366,-2.8381,-2.8376,-2.8473,-2.8465,-2.8791,-2.8832,-2.8533,-2.8536,-2.8539,0,-2.7956,-2.8032,-2.8049,-2.8089,-2.8104,-2.817,-2.8206,-2.817,-2.8211,-2.8247,-2.8305,-2.8368,-2.8416,-2.8529,-2.8525,-2.8581,-2.8559,-2.8669,-2.8567,-2.8577,-2.8561,-2.8558,-2.8565,-2.8691,-2.8694,-2.8697,-2.8699,0,-2.8219,-2.8205,-2.826,-2.8311,-2.8356,-2.8395,-2.8429,-2.8465,-2.8431,-2.8479,-2.8548,-2.8585,-2.8659,-2.8723,-2.8773,-2.8784,-2.8737,-2.8731,-2.8756,-2.877,-2.8776,-2.8775,-2.8438,-2.8724,-2.8722,-2.872,-2.8718,-2.8717,-2.8414,-2.8478,-2.85,-2.8563,-2.8584,-2.8616,-2.8675,-2.8672,-2.8729,-2.8786,-2.8761,-2.8841,-2.8865,-2.8927,-2.8945,-2.9006,-2.8964,-2.9001,-2.901,-2.902,-2.9033,-2.8765,-2.9015,-2.9015,-2.9014,-2.9013,-2.9013,0,-2.8675,-2.8686,-2.8743,-2.8791,-2.8841,-2.879,-2.8824,-2.8869,-2.8939,-2.8965,-2.9013,-2.9092,-2.9152,-2.9153,-2.9209,-2.9258,-2.9238,-2.9274,-2.9271,-2.9274,-2.9067,-2.904,-2.929,-2.929,-2.929,-2.929,-2.929,-2.929,-2.8817,-2.8923,-2.8911,-2.9027,-2.9036,-2.9113,-2.9137,-2.9166,-2.9187,-2.9277,-2.9326,-2.9326,-2.9342,-2.9398,-2.9452,-2.945,-2.9474,-2.9519,-2.951,-2.9317,-2.9289,-2.9263,-2.9237,-2.9524,-2.9525,-2.9712,-2.9714,-2.9715]},{"header":{"parameterUnit":"m.s-1","parameterCategory":1,"la1":30.2991,"la2":30.254,"lo1":-89.0895,"lo2":-89.0444,"dy":0.0017,"dx":0.0017,"nx":28,"ny":28,"refTime":"2024-12-01T09:00:00:Z","depth":0,"parameterNumber":3,"parameterNumberName":"V-component_of_WINDS"},"data":[0,0,0,0,0,0,0,0,0,0,0,0,0,0,0,0,0,0,0,0,0,0,0,0,0,0,0,0,0,0,0,0,0,0,0,0,0,0,0,0,0,0,0,0,0,0,0,0,0,0,0,0,0,0,0,0,0,0,-3.7961,-3.7961,0,-3.8009,-3.8009,-3.801,-3.7954,-3.7952,-3.795,-3.7948,-3.7994,-3.7997,-3.8,0,0,0,0,0,0,0,0,0,0,0,0,0,-3.7816,-3.7819,-3.796,-3.7961,-3.7962,-3.8009,-3.8009,-3.801,-3.7954,-3.7952,-3.7949,-3.7947,-3.7993,-3.7997,-3.8001,0,0,0,0,0,0,0,0,0,0,0,0,0,-3.7873,-3.782,-3.796,-3.794,-3.7938,-3.8009,-3.8009,-3.801,-3.7955,-3.7951,-3.7948,-3.7945,-3.7992,-3.7996,-3.8001,-3.8094,0,0,-3.8016,-3.8018,0,0,0,0,0,0,0,0,-3.7869,-3.7878,-3.7942,-3.7941,-3.794,-3.7972,-3.7975,-3.8038,-3.7955,-3.7948,-3.7947,-3.7944,-3.7989,-3.7994,-3.801,-3.8096,-3.8098,-3.8016,-3.8019,-3.8021,-3.8023,0,0,0,0,0,0,0,-3.7866,-3.7876,-3.7979,-3.7943,-3.7942,-3.7926,-3.7931,-3.7987,-3.7986,-3.7949,-3.7945,-3.7951,-3.7988,-3.8005,-3.801,-3.8098,-3.8016,-3.802,-3.8023,-3.8025,-3.826,-3.8263,0,0,0,0,0,0,-3.7865,-3.7873,-3.7978,-3.7981,-3.7896,-3.7932,-3.7937,-3.7965,-3.7985,-3.7985,-3.7954,-3.7949,-3.7999,-3.8005,-3.8012,-3.812,-3.8021,-3.8026,-3.8028,-3.8257,-3.8261,-3.8265,0,0,0,0,0,0,-3.7862,-3.7875,-3.7976,-3.7926,-3.7938,-3.7937,-3.7969,-3.7967,-3.7985,-3.7989,-3.7988,-3.7972,-3.7996,-3.8005,-3.8073,-3.8121,-3.8028,-3.8032,-3.8253,-3.8258,-3.8263,-3.8338,0,0,0,0,0,0,-3.7858,-3.7874,-3.791,-3.7927,-3.794,-3.8038,-3.7972,-3.7971,-3.7994,-3.7987,-3.8006,-3.8006,-3.7995,-3.8067,-3.8078,-3.8126,-3.8036,-3.8249,-3.8255,-3.8261,-3.8331,-3.8345,-3.8356,0,0,0,0,0,-3.7853,-3.7929,-3.7912,-3.7925,-3.7986,-3.8041,-3.8049,-3.8035,-3.7998,-3.8033,-3.8035,-3.8005,-3.8114,-3.8074,-3.8087,-3.8136,-3.8246,-3.8253,-3.8261,-3.8325,-3.8342,-3.8356,0,0,0,0,0,0,-3.7917,-3.7931,-3.7912,-3.7997,-3.8018,-3.8031,-3.8076,-3.8053,-3.8085,-3.8077,-3.8058,-3.8063,-3.8135,-3.8142,-3.8098,-3.8226,-3.8173,-3.8184,-3.8218,-3.8234,-3.8246,-3.8243,-3.804,0,0,0,0,0,-3.7941,-3.7986,-3.7995,-3.8068,-3.808,-3.8077,-3.81,-3.8087,-3.8108,-3.8117,-3.8124,-3.8145,-3.8183,-3.8209,-3.8245,-3.8332,-3.8334,-3.8372,-3.8385,-3.8395,-3.8404,-3.8448,-3.8465,-3.829,-3.8289,-3.8289,0,0,-3.7991,-3.8004,-3.8033,-3.8081,-3.8097,-3.8142,-3.8084,-3.8135,-3.8168,-3.8124,-3.8189,-3.8195,-3.8217,-3.8294,-3.8329,-3.8303,-3.8453,-3.8405,-3.8413,-3.8416,-3.8458,-3.8474,-3.8489,-3.8295,-3.8294,-3.8293,0,0,-3.8104,-3.812,-3.8182,-3.8198,-3.8222,-3.8219,-3.8234,-3.825,-3.8253,-3.8318,-3.8285,-3.8324,-3.8391,-3.8407,-3.8424,-3.8543,-3.8515,-3.8555,-3.8621,-3.8665,-3.8678,-3.869,-3.8731,-3.8746,-3.8564,-3.8564,-3.8564,0,-3.8163,-3.8231,-3.8216,-3.8269,-3.829,-3.8253,-3.8315,-3.8331,-3.8365,-3.838,-3.8351,-3.8433,-3.8445,-3.8525,-3.8554,-3.857,-3.8584,-3.8552,-3.8678,-3.869,-3.8701,-3.8739,-3.8755,-3.8569,-3.8568,-3.8568,-3.8567,0,-3.8301,-3.8349,-3.8396,-3.843,-3.8456,-3.8514,-3.8505,-3.8534,-3.8519,-3.8518,-3.8584,-3.8597,-3.8634,-3.8652,-3.8638,-3.873,-3.8712,-3.8681,-3.8628,-3.8722,-3.8758,-3.8773,-3.8575,-3.8574,-3.8572,-3.8571,0,0,-3.8457,-3.8481,-3.8499,-3.8513,-3.8536,-3.8572,-3.8626,-3.8663,-3.8687,-3.8712,-3.8755,-3.8813,-3.8783,-3.8803,-3.879,-3.8828,-3.8919,-3.8792,-3.8792,-3.8813,-3.9019,-3.9041,-3.9059,-3.8902,-3.8904,-3.8907,-3.9016,0,-3.8569,-3.8665,-3.8652,-3.8743,-3.8785,-3.8751,-3.8797,-3.8816,-3.8817,-3.8852,-3.8852,-3.8892,-3.8851,-3.8863,-3.8899,-3.89,-3.896,-3.8892,-3.894,-3.8942,-3.8935,-3.9078,-3.9102,-3.9205,-3.903,-3.9033,-3.9034,0,-3.8714,-3.8744,-3.8839,-3.8854,-3.8871,-3.8914,-3.8946,-3.8981,-3.9,-3.8998,-3.9019,-3.8999,-3.9051,-3.8998,-3.9069,-3.9024,-3.9043,-3.9046,-3.905,-3.9053,-3.8993,-3.9083,-3.9238,-3.9253,-3.9057,-3.9055,-3.9053,0,-3.8815,-3.888,-3.8944,-3.8958,-3.8978,-3.9008,-3.9018,-3.9034,-3.9056,-3.9084,-3.9098,-3.9131,-3.9149,-3.9174,-3.9163,-3.9126,-3.9236,-3.9182,-3.9234,-3.9234,-3.9257,-3.9256,-3.9416,-3.9272,-3.9272,-3.9272,-3.9271,0,-3.8942,-3.9001,-3.899,-3.903,-3.9095,-3.9079,-3.9143,-3.9148,-3.9162,-3.9201,-3.9173,-3.921,-3.9193,-3.9229,-3.922,-3.9279,-3.9288,-3.9286,-3.9283,-3.9288,-3.9288,-3.9299,-3.9291,-3.9276,-3.9275,-3.9274,-3.9273,0,-3.9066,-3.9062,-3.913,-3.9143,-3.9147,-3.9194,-3.9204,-3.9241,-3.9239,-3.9288,-3.9299,-3.9296,-3.9336,-3.9327,-3.9371,-3.9365,-3.9439,-3.9427,-3.9433,-3.9429,-3.9481,-3.9475,-3.9652,-3.9674,-3.9518,-3.9519,-3.9521,0,-3.9147,-3.9191,-3.9209,-3.9233,-3.9245,-3.9285,-3.9307,-3.9293,-3.9318,-3.9343,-3.9376,-3.9413,-3.9442,-3.9507,-3.9508,-3.9541,-3.9529,-3.9589,-3.9534,-3.9537,-3.9528,-3.9525,-3.9528,-3.9599,-3.9601,-3.9603,-3.9604,0,-3.9289,-3.9284,-3.9319,-3.9352,-3.938,-3.9406,-3.9428,-3.9449,-3.9437,-3.9465,-3.9506,-3.9529,-3.9573,-3.961,-3.964,-3.9648,-3.9623,-3.9621,-3.9634,-3.9639,-3.964,-3.9639,-3.9461,-3.9617,-3.9616,-3.9615,-3.9614,-3.9613,-3.9393,-3.943,-3.9448,-3.9487,-3.9502,-3.9524,-3.9558,-3.9561,-3.9595,-3.963,-3.9619,-3.9665,-3.9682,-3.972,-3.9731,-3.9766,-3.9743,-3.9763,-3.9768,-3.9773,-3.9778,-3.9636,-3.9772,-3.9771,-3.9771,-3.9771,-3.977,0,-3.9532,-3.9542,-3.9578,-3.961,-3.964,-3.9616,-3.9639,-3.9665,-3.9706,-3.9724,-3.9753,-3.9799,-3.9834,-3.9838,-3.9871,-3.9898,-3.9887,-3.9907,-3.9904,-3.9906,-3.9797,-3.9782,-3.9915,-3.9915,-3.9915,-3.9915,-3.9915,-3.9915,-3.9608,-3.967,-3.9667,-3.9735,-3.9744,-3.9789,-3.9804,-3.9823,-3.9837,-3.989,-3.992,-3.9922,-3.9934,-3.9967,-3.9998,-3.9998,-4.001,-4.0034,-4.0029,-3.9928,-3.9914,-3.99,-3.9885,-4.0037,-4.0037,-4.0134,-4.0135,-4.0136]}]]